Погода в Переделе

Россия / Калужская область     55°12′09″N   35°40′45″E
темп.,
°C
ветер,
м/с
пор.,
м/с
влажн.,
%
обл.,
%
осадки,
мм/ч
давл.,
гПа
погр.,
м
13 апреля, вт
вт1300:00+9вюв3139482 0.0 1025363
03:00+8вюв3109531 0.0 1024221
06:00+7юв2109370 0.0 1024184
09:00+12ююв3971100 0.0 1024277
12:00+17ююв4753100 0.0 1023731
15:00+19ююв584168 0.0 10221904
18:00+18ююв494831 0.0 1020420
21:00+12юв3116874 0.0 1021181
14 апреля, ср
ср1400:00+11ююв3116620 0.0 1020261
03:00+11юв3126977 0.0 1019324
06:00+8ююв311885 0.0 1019308
09:00+12ю497983 0.0 1019490
12:00+17ю495683 0.0 10181519
15:00+16ю4657100 0.5 10171296
18:00+15ю1269100 0.3 101748
21:00+11вюв1179100 0.4 101711
15 апреля, чт
чт1500:00+10св0077100 0.0 101710
03:00+9св2274100 0.0 101620
06:00+7всв2276100 0.0 101618
09:00+12всв2461100 0.0 1016232
12:00+14юв3551100 0.0 1016768
15:00+14юв365591 0.0 10161177
18:00+12в277193 0.8 1016189
21:00+11св387699 1.1 1016194
16 апреля, пт
пт1600:00+9св4108195 0.0 1016353
03:00+7св4109563 0.0 1017341
06:00+6св4129697 0.1 1018422
09:00+9всв5108076 0.1 1018610
12:00+13всв576577 0.3 10181087
15:00+13всв596990 0.8 10181071
18:00+11всв51281100 0.3 1019938
21:00+9всв51293100 1.3 1020595
17 апреля, сб
сб1700:00+8всв51293100 6.4 1020473
03:00+8всв4119353 6.6 1021450
06:00+6всв4129392 0.0 1022470
09:00+8всв5108221 0.0 1023532
12:00+12всв586928 0.0 1023850
15:00+15всв695914 0.0 10231196
18:00+13всв510625 0.0 10241176
21:00+10всв5136699 0.0 1025644